TELKOM 4 (MERAH PUTIH)

Last updated on Fri Jul 11 2025 00:02:45 GMT+0000 (Coordinated Universal Time)

1 43587U 18064A 25191.64990170 -.00000332 00000+0 00000+0 0 9997 2 43587 0.0155 29.6763 0001604 105.8576 135.2326 1.00270053 25452
UTC large
Height (km)
Speed (km/s)
/
Latitude / Longitude
Inclination (degrees)
Orbital Period (minutes)
Azimuth
Elevation
Range (km)
Doppler Factor

Next 0 passes for location: London (51.5072 / 0.1276)

Sorry there are no passes over London.